Location: Augirein
(42.9320°N, 0.9181°E)
Time: 18:21:53
(UTC+00:00)

SJ 16-02 - Pass Details

Date: 20 June 2021
Orbit: 606 x 616 km, 75.0° (Epoch: 02 August)

Event Time Altitude Azimuth Distance (km) Brightness Sun altitude
Rises 00:34:05 0° 333° (NNW) 2,872 5.6 -23.1°
Reaches altitude 10° 00:36:25 10° 326° (NW) 1,963 4.5 -23.0°
Enters shadow 00:40:07 38° 271° (W) 938 2.1 -22.9°
